Regional Weather Roundup
Issued by NWS Pendleton, OR

Home | Current Version | Previous Version | Text Only | Print | Product List | Glossary On
Versions: 1 2 3 4 5 6 7 8 9 10 11 12 13 14 15 16 17 18 19 20 21 22 23 24 25 26 27 28 29 30 31 32 33 34 35 36 37 38 39 40 41 42 43 44 45 46 47 48 49 50
337
ASUS46 KPDT 212125
RWRPDT
PENDLETON REGIONAL WEATHER ROUNDUP
NATIONAL WEATHER SERVICE PENDLETON OREGON
100 PM PST TUE NOV 21 2017

NOTE: FAIR INDICATES FEW OR NO CLOUDS BELOW 12,000 FEET WITH NO
SIGNIFICANT WEATHER AND/OR OBSTRUCTIONS TO VISIBILITY.

# INDICATES UNOFFICIAL STATION AND DATA

WAZ520-212210-
EAST SLOPES OF WASHINGTON CASCADES

CITY            SKY/WX      TMP DP  RH  WIND    PRES   REMARKS
#BULLFROG       N/A         34  33  96  CALM    N/A
#CLE ELUM HS    N/A         36  33  89  CALM    30.06F
#CLE ELUM LAKE  N/A         34  33  96  CALM    30.04F
#EASTON DOT     N/A         34  34  100 CALM    N/A
#GLENWOOD       N/A         39  38  96  CALM    30.13F
#NELSON 3SW     N/A         33  32  96  CALM    30.37F
#NILE           N/A         36  35  96  CALM    29.41F
#TEANAWAY 4NE   N/A         36  36  100 CALM    N/A
#TROUT LAKE 1NE N/A         40  39  96  CALM    30.13F
#TROUT LAKE 1E  N/A         40  39  96  CALM    30.12F
$$

WAZ521-212210-
SIMCOE HIGHLANDS

CITY            SKY/WX      TMP DP  RH  WIND    PRES   REMARKS
#BICKLETON HS   N/A         N/A N/A N/A N1      30.11F
#CENTERVILLE 1SWN/A         40  35  82  CALM    30.11F
#GOLDENDALE 4W  N/A         43  31  62  CALM    30.11F
#GOODNOE HILLS  N/A         42  40  93  E3      N/A
#LYLE 6NE       N/A         40  39  96  N1      30.14F
#PITT 4SE       N/A         38  37  96  CALM    30.16S
$$

WAZ026-212210-
KITTITAS VALLEY

CITY            SKY/WX      TMP DP  RH  WIND    PRES   REMARKS
ELLENSBURG AP   LGT RAIN    38  36  92  CALM    30.10F FOG
#ELLENSBURG CWU N/A         36  34  92  CALM    30.11F
#ELLENSBURG 3NE N/A         36  35  96  CALM    28.20F
#ELLENSBURG 1E  N/A         36  35  96  CALM    30.23F
#KITTITAS 3S    N/A         35  33  92  CALM    30.16F
#MANASTASH RDG  N/A         36  36  100 CALM    N/A
#RYEGRASS DOT   N/A         35  34  96  E8      N/A
$$

WAZ027-212210-
YAKIMA VALLEY

CITY            SKY/WX      TMP DP  RH  WIND    PRES   REMARKS
SUNNYSIDE AP    LGT DRIZZLE 39  38  96  CALM    30.14F
YAKIMA AIRPORT  LGT RAIN    43  40  89  CALM    30.13F FOG
YAKIMA-VAGABOND LGT RAIN    40  37  89  CALM    30.11F
#DONALD 2NE     N/A         41  32  70  W1      28.97F
#GRANDVIEW      N/A         41  38  89  CALM    30.10S
#MABTON         N/A         42  40  93  CALM    30.15F
#MOXEE 2E       N/A         54  N/A N/A SW6     29.69R
#NACHES 2SW     N/A         39  37  92  CALM    30.14S
#OUTLOOK DOT    N/A         41  40  96  CALM    30.12F
#PARKER DOT     N/A         42  39  89  S5      30.14F
#TERRACE HTS    N/A         40  38  92  CALM    30.14F
#TOPPENISH      N/A         42  40  93  CALM    30.08F
#I82 S UMTANUM RN/A         39  36  89  N5      N/A
#UNION GAP DOT  N/A         41  39  93  W2      30.18F
#W YAKIMA       N/A         39  37  92  CALM    30.15F
#WHITE SWAN 5E  N/A         42  40  93  CALM    30.16F
#WILEY CITY 3W  N/A         40  35  82  CALM    30.09F
#ZILLAH DOT     N/A         42  N/A N/A CALM    N/A
$$

WAZ028-212210-
LOWER COLUMBIA BASIN...WASHINGTON

CITY            SKY/WX      TMP DP  RH  WIND    PRES   REMARKS
HANFORD         LGT RAIN    40  39  96  NW12    30.15F WCI 33
PASCO           LGT RAIN    42  40  93  N8      30.17F
PROSSER AWOS    N/A         41  39  93  CALM    30.18F
RICHLAND AWOS   LGT RAIN    43  42  96  NW6     30.17F
#BENTON CITY    N/A         41  40  96  S1      30.08F
#CONNELL 5N     N/A         38  37  96  NW3     30.17F
#CONNELL 5NW    N/A         38  37  96  NW5     30.11F
#ELTOPIA 6NW    N/A         39  38  96  CALM    29.11F
#KAHLOTUS       N/A         40  38  92  CALM    30.16S
#KENNEWICK 3S   N/A         40  38  92  CALM    30.16F
#PATERSON       N/A         43  42  96  CALM    30.13F
#PROSSER DOT    N/A         42  40  93  CALM    30.16F
#SAGEMOOR 2W    N/A         39  37  92  N5      30.03F
#TOUCHET 2S     N/A         41  39  93  CALM    30.15F
#WEST PASCO     N/A         43  41  93  CALM    30.17F
$$

WAZ029-212210-
FOOTHILLS OF THE BLUES...WASHINGTON

CITY            SKY/WX      TMP DP  RH  WIND    PRES   REMARKS
WALLA WALLA AP  LGT RAIN    42  40  93  S3      30.12F FOG
#CLYDE 6NW      N/A         43  41  93  NE1     30.14F
#DAYTON SCHOOL  N/A         42  36  79  SW1     30.12F
#LOWDEN 2SE     N/A         41  39  93  CALM    30.11F
#PLEASANT VIEW 1N/A         40  38  92  CALM    30.18F
#PRESCOTT       N/A         44  41  89  CALM    30.14F
#WHITMAN COLLEGEN/A         40  39  96  S2      30.10F
#WAITSBURG 5S   N/A         40  38  92  CALM    30.23F
#WAITSBURG 6SSE N/A         42  40  93  W1      30.12F
#WAITSBURG 8N   N/A         42  N/A N/A S3      29.88F
#WALLA WALLA 5E N/A         41  39  93  CALM    N/A
#WHITMAN MISSIONN/A         41  39  93  CALM    30.16F
$$

WAZ030-212210-
BLUE MOUNTAINS...WASHINGTON

CITY            SKY/WX      TMP DP  RH  WIND    PRES   REMARKS
#DIXIE 5SE      N/A         54  49  83  S15     30.02F
$$

ORZ009-041-WAZ024-212210-
COLUMBIA RIVER GORGE

CITY            SKY/WX      TMP DP  RH  WIND    PRES   REMARKS
HOOD RIVER AP   LGT RAIN    43  43  100 CALM    30.12F
THE DALLES AP   LGT RAIN    46  44  93  CALM    30.13F FOG
#ARLINGTON AIRPON/A         42  41  96  E6      30.14F
#ARLINGTON HS   N/A         45  41  86  N2      30.06S
#CELILO DOT     N/A         46  43  89  E1      N/A
#LYLE           N/A         45  43  93  N1      30.15F
#MURDOCK        N/A         45  44  96  CALM    30.10F
#RUFUS DOT      N/A         46  N/A N/A SE7     N/A
#SMITHVILLE     N/A         46  44  93  NW1     30.08F

$$

ORZ510-212210-
NORTH CENTRAL OREGON

CITY            SKY/WX      TMP DP  RH  WIND    PRES   REMARKS
#ANTELOPE       N/A         54  50  86  CALM    29.93F
#COW CYN RST AREN/A         53  N/A N/A W2      N/A
#DUFUR          N/A         42  41  96  CALM    30.08F
#DUFUR 9E       N/A         40  39  96  CALM    30.16F
#GRASS VALLEY 1SN/A         43  42  96  NE2     30.08F
#KENT DOT       N/A         44  40  86  NE3     N/A
#MAUPIN SCHOOL  N/A         46  42  86  CALM    30.14F
#MORO SCHOOL    N/A         41  41  100 NE1     30.09S
#SHANIKO 5WSW   N/A         51  -17  5  S8      N/A
#TYGH VALLEY 2NEN/A         46  43  89  CALM    30.09F
#WAPANITIA AIRPON/A         43  41  93  CALM    30.11F
#WASCO DOT      N/A         44  42  93  E6      N/A
#WASCO 5NE      N/A         41  25  53  N5      30.13F
$$

ORZ511-212210-
CENTRAL OREGON

CITY            SKY/WX      TMP DP  RH  WIND    PRES   REMARKS
BEND AIRPORT    MOCLDY      61  46  58  S17     30.09F
PRINEVILLE AP   CLOUDY      59  46  62  S14     30.10F
REDMOND AIRPORT CLOUDY      61  48  62  S8      30.08F
#ASHWOOD SCHOOL N/A         61  48  62  SE9     30.00F
#BEND 1SW       N/A         55  49  80  CALM    N/A
#BEND-AWBREY    N/A         56  50  80  SW6     30.04F
#BEND-KIM LN    N/A         57  48  72  S12     29.96F
#CULVER         N/A         59  48  67  SE14    29.88F
#CULVER 8W      N/A         58  45  62  E5      30.05F
#LAKE BILLY CHINN/A         59  N/A N/A S5      30.10F
#MADRAS 4S      N/A         61  16  17  S23     N/A
#POWELL BUTTE   N/A         60  46  60  S17     30.04S
#PRINEVILLE     N/A         60  48  64  NW1     30.15S
#PRINEVILLE 3N  N/A         59  49  69  SE6     30.05F
#WARM SPRINGS   N/A         47  45  93  CALM    29.94F

$$


ORZ509-212210-
EAST SLOPES OF OREGON CASCADES

CITY            SKY/WX      TMP DP  RH  WIND    PRES   REMARKS
SISTERS AWOS    N/A         55  52  90  CALM    N/A
#CAMP SHERMAN   N/A         49  47  93  CALM    30.09F
#LA PINE 4NW    N/A         52  46  80  CALM    30.14F
#LAVA BUTTE DOT N/A         52  41  66  SE6     N/A
#SISTERS ODOT   N/A         54  51  90  CALM    N/A
#SISTERS 3N     N/A         56  48  74  E2      30.06S
#SUNRIVER       N/A         52  49  89  S2      30.08F
#TUMALO 3W      N/A         56  47  72  S15     29.91F
#WANOGA BUTTE D N/A         42  42  100 W16     N/A    WCI 34

$$

ORZ044-212210-
LOWER COLUMBIA BASIN...OREGON

CITY            SKY/WX      TMP DP  RH  WIND    PRES   REMARKS
HERMISTON       LGT RAIN    44  42  93  NE7     30.13F
#BOARDMAN SCHOOLN/A         46  43  89  N2      30.14S
#BOARDMAN 8SW   N/A         44  42  93  N2      30.15S
#ECHO 8SW       N/A         44  44  100 E1      30.14F
#I-84 EX 198 DOTN/A         43  42  96  CALM    N/A
#IONE SCHOOL    N/A         44  29  55  SE1     30.15S
#UMATILLA       N/A         45  40  82  CALM    30.08F
$$

ORZ507-212210-
NORTHERN FOOTHILLS OF THE BLUES

CITY            SKY/WX      TMP DP  RH  WIND    PRES   REMARKS
PENDLETON AIRPT LGT RAIN    44  42  93  CALM    30.09F
#ADAMS 3WNW     N/A         44  42  93  E2      30.11F
#ATHENA         N/A         41  36  82  N1      30.15F
#CAYUSE         N/A         43  41  93  CALM    30.10F
#HELIX 3N       N/A         42  40  93  NE2     30.06F
#HOLDMAN 5SE    N/A         45  43  93  E2      30.09F
#HOLDMAN 6E     N/A         41  40  96  N7      29.92F
#M-F GROVE ELEM N/A         41  38  89  CALM    30.10F
#M-FREEWATER 5SEN/A         41  38  89  CALM    30.09F
#PENDLETON DNTN N/A         45  40  82  CALM    30.07F
#PDT AQUATIC CTRN/A         44  42  93  CALM    30.15F
#PDT SUNRIDGE   N/A         44  42  93  CALM    30.11F
#PENDLETON 6SE  N/A         44  41  89  CALM    30.08F
#PENDLETON 7NW  N/A         44  40  86  CALM    30.16F
#PILOT ROCK 1S  N/A         44  38  79  CALM    30.10F
#PILOT ROCK     N/A         45  42  89  CALM    30.09F
#TUTUILLA       N/A         44  41  89  CALM    30.13F
#UMAPINE 2E     N/A         41  39  93  CALM    30.12F
#WESTON SCHOOL  N/A         41  38  89  NE1     30.02F

$$

ORZ508-212210-
SOUTHERN FOOTHILLS OF THE BLUES

CITY            SKY/WX      TMP DP  RH  WIND    PRES   REMARKS
LEXINGTON       CLOUDY      43  43  100 N7      30.13S
#AJAX           N/A         40  34  79  N7      30.22F
#CONDON 5W      N/A         51  48  89  CALM    30.04F
#HEPPNER EOC    N/A         42  40  93  NW2     30.03F
#HEPPNER 4NE    N/A         54  50  86  S1      30.08F
#LEXINGTON 2SE  N/A         45  42  89  NW6     30.05S
#MIKKALO        N/A         42  40  93  CALM    30.20S
#OLEX 4N        N/A         42  40  93  E6      30.11S
#RUGGS 5NE      N/A         58  50  75  E7      30.23F
#RUGGS 2SW      N/A         57  51  80  SW6     30.09S

$$

ORZ502-503-212210-
BLUE MOUNTAINS

CITY            SKY/WX      TMP DP  RH  WIND    PRES   REMARKS
MEACHAM         LGT RAIN    47  45  93  CALM    30.14F
#BATTLE MTN DOT N/A         47  46  96  S9      N/A
#GRANITE        N/A         45  45  100 CALM    30.24S
#HARDMAN 10S    N/A         49  48  96  SE7     30.25F
#LADD CYN SMT   N/A         46  44  93  SE16    N/A    WCI 39
#LADD CREEK ODOTN/A         49  45  86  S8      N/A
#LONG CREEK HS  N/A         55  49  80  SW15    30.14S
#N POWDER DOT   N/A         45  43  93  S2      N/A
#PIKES PEAK     N/A         53  48  83  CALM    27.99S
#TOLLGATE       N/A         43  42  96  SW2     30.00S
#TROY SCHOOL    N/A         40  38  92  CALM    30.10S
#UKIAH          N/A         44  42  93  CALM    30.09S
#WESTON 4E      N/A         52  49  89  E9      30.09F
$$

ORZ505-212210-
JOHN DAY BASIN

CITY            SKY/WX      TMP DP  RH  WIND    PRES   REMARKS
JOHN DAY        CLOUDY      56  47  72  SE14    30.18F
#ANTELOPE 9ESE  N/A         47  43  86  CALM    N/A
#DAYVILLE SCHOOLN/A         58  47  67  SE6     30.09S
#MITCHELL 8NW   N/A         56  46  69  S2      30.11F
#MONUMENT HS    N/A         49  46  89  CALM    30.07F
#MT. VERNON 5SE N/A         52  47  83  E3      30.13F
#WINLOCK        N/A         59  57  93  N3      30.06F
$$

ORZ506-212210-
OCHOCO AND JOHN DAY HIGHLANDS

CITY            SKY/WX      TMP DP  RH  WIND    PRES   REMARKS
#HORSE RIDGE DO N/A         56  45  66  SE16    N/A
#PAULINA ODOT   N/A         52  48  86  N2      N/A
#PINE MTN OBS   N/A         43  42  96  SE24    N/A    WCI 34
#SENECA         N/A         48  N/A N/A N5      N/A
#SENECA 9NW     N/A         47  46  96  CALM    30.18S
$$

ORZ049-212210-
GRANDE RONDE VALLEY

CITY            SKY/WX      TMP DP  RH  WIND    PRES   REMARKS
LA GRANDE       LGT RAIN    50  46  86  S10     30.18S
#COVE SCHOOL    N/A         48  47  96  CALM    30.17F
#COVE 6NW       N/A         49  46  89  CALM    30.20F
#ELGIN 3N       N/A         42  40  93  N5      30.13F
#ELGIN 1E       N/A         44  39  82  CALM    N/A
#IMBLER SCHOOL  N/A         47  45  93  CALM    30.13F
#ISLAND CITY 4N N/A         50  50  100 CALM    29.94F
#LADD CYN DOT   N/A         51  47  86  S16     N/A
#UNION 1S       N/A         51  47  86  S12     30.19F
$$

ORZ050-212210-
WALLOWA COUNTY

CITY            SKY/WX      TMP DP  RH  WIND    PRES   REMARKS
JOSEPH AIRPORT  LGT RAIN    45  41  86  CALM    30.18S
#ENTERPRISE HS  N/A         43  40  89  CALM    30.09F
#IMNAHA SCHOOL  N/A         44  41  89  N1      30.17F
#IMNAHA 10S     N/A         45  44  96  CALM    30.14F
#JOSEPH         N/A         45  41  86  CALM    30.57R
#JOSEPH 3N      N/A         43  38  82  NW1     30.18S
#JOSEPH 3W      N/A         48  48  100 CALM    30.00F
#LOSTINE        N/A         42  39  89  CALM    30.04S
#LOSTINE 3SE    N/A         42  39  89  CALM    30.23S
#MT HOWARD 8000 N/A         38  35  89  SW10    30.25R
#PROMISE 1S     N/A         43  41  93  S5      30.32R
#WALLOWA SCHOOL N/A         38  36  92  CALM    30.15S



$$



USA.gov is the U.S. government's official web portal to all federal, state and local government web resources and services.